BEAR Weather Reports


time (UTC)temp
C
wind
direction
speed
KPH
gust
KPH
rain 1hr
cm
rain 24hr
cm
rain mn
cm
humidity
%
barometer
mb
20260506201549 5 229 0.0 4.8 0.00 0.00 0.00 97 1007.1
20260506200049 6 229 0.0 3.2 0.00 0.00 0.00 97 1006.9
20260506194528 5 229 0.0 1.6 0.00 0.00 0.00 98 1006.9
20260506193018 5 229 0.0 3.2 0.00 0.00 0.00 97 1006.9
20260506191548 5 229 0.0 3.2 0.00 0.00 0.00 97 1006.9
20260506190046 5 229 0.0 4.8 0.00 0.00 0.00 97 1007.1
20260506184516 5 278 0.0 4.8 0.00 0.00 0.00 97 1006.9
20260506183018 5 57 0.0 6.4 0.00 0.00 0.00 97 1006.9
20260506181559 5 39 0.0 9.7 0.00 0.00 0.00 97 1007.0
20260506180044 5 54 1.6 3.2 0.00 0.00 0.00 97 1007.2
20260506174541 5 61 0.0 3.2 0.00 0.00 0.00 97 1007.5
20260506173059 5 65 0.0 6.4 0.00 0.00 0.00 97 1007.8
20260506171547 5 71 1.6 6.4 0.00 0.00 0.00 97 1007.6
20260506170042 5 123 0.0 6.4 0.00 0.00 0.00 97 1007.2
20260506164513 5 77 1.6 6.4 0.00 0.00 0.00 97 1007.5
20260506163008 5 100 3.2 12.9 0.00 0.00 0.00 97 1007.2
20260506161506 5 185 1.6 3.2 0.00 0.00 0.00 97 1007.6
20260506160006 5 188 1.6 4.8 0.00 0.00 0.00 97 1008.0
20260506154514 5 183 0.0 4.8 0.00 0.00 0.00 97 1008.2
20260506153002 5 129 1.6 3.2 0.00 0.00 0.00 97 1007.8
20260506151600 5 128 0.0 3.2 0.00 0.00 0.00 97 1007.8
20260506150105 6 127 0.0 4.8 0.00 0.00 0.00 97 1007.7
20260506144602 6 66 0.0 3.2 0.00 0.00 0.00 97 1007.5
20260506143059 5 66 0.0 3.2 0.00 0.00 0.00 97 1007.7
20260506141555 5 66 0.0 9.7 0.00 0.00 0.00 97 1007.8
20260506140055 5 355 0.0 4.8 0.00 0.00 0.00 97 1008.1
20260506134553 5 65 1.6 4.8 0.00 0.00 0.00 97 1007.8
20260506133101 6 163 1.6 4.8 0.00 0.00 0.00 97 1007.3
20260506131558 5 235 1.6 14.5 0.00 0.00 0.00 97 1007.6
20260506130053 6 298 4.8 11.3 0.00 0.00 0.00 97 1008.1
20260506124546 6 46 9.7 17.7 0.00 0.00 0.00 97 1007.0
20260506123043 6 49 1.6 4.8 0.00 0.00 0.00 97 1007.8
20260506121544 6 38 3.2 12.9 0.00 0.00 0.00 97 1008.2
20260506120030 6 122 3.2 11.3 0.00 0.00 0.00 97 1008.1
20260506114528 6 69 0.0 9.7 0.00 0.00 0.00 97 1008.2
20260506113028 6 103 3.2 16.1 0.00 0.00 0.00 96 1008.2
20260506110025 7 95 1.6 6.4 0.00 0.00 0.00 97 1008.0
20260506104525 7 88 0.0 3.2 0.00 0.00 0.00 97 1007.9
20260506103035 7 98 1.6 4.8 0.00 0.00 0.00 97 1007.6
20260506100027 7 21 0.0 4.8 0.00 0.00 0.00 97 1008.0
20260506094523 7 340 1.6 4.8 0.00 0.00 0.00 97 1009.4
20260506093018 8 340 0.0 11.3 0.00 0.00 0.00 97 1008.5
20260506090023 8 66 6.4 17.7 0.00 0.00 0.00 97 1007.9
20260506084523 8 59 0.0 4.8 0.00 0.00 0.00 97 1008.2
20260506083020 8 87 3.2 4.8 0.00 0.00 0.00 97 1008.7
20260506081516 9 50 0.0 3.2 0.00 0.00 0.00 97 1008.3
20260506073010 10 190 1.6 3.2 0.00 0.00 0.00 97 1008.6
20260506071512 10 190 1.6 3.2 0.00 0.00 0.00 97 1008.2
20260506061501 10 191 0.0 4.8 0.00 0.00 0.00 96 1008.6
20260506044518 10 142 0.0 4.8 0.00 0.00 0.00 97 1008.4
20260506043046 10 144 0.0 4.8 0.00 0.00 0.00 96 1008.7
20260506041549 10 146 0.0 3.2 0.00 0.00 0.00 96 1008.6
20260506040042 10 144 0.0 3.2 0.00 0.00 0.00 96 1009.1
20260506034541 11 145 0.0 3.2 0.00 0.00 0.00 95 1008.9
20260506033038 11 144 1.6 9.7 0.00 0.00 0.00 94 1008.6
20260506031534 12 286 3.2 8.0 0.00 0.00 0.00 94 1008.4
20260506030002 12 115 0.0 4.8 0.00 0.00 0.00 94 1008.0
20260506024505 12 209 1.6 4.8 0.00 0.00 0.00 92 1007.7
20260506023031 13 261 1.6 3.2 0.00 0.00 0.00 88 1007.9
20260506021529 14 195 0.0 6.4 0.00 0.00 0.00 81 1007.8
20260506020026 14 136 3.2 8.0 0.00 0.00 0.00 80 1007.6
20260506014529 14 155 0.0 8.0 0.00 0.00 0.00 80 1007.8
20260506013023 14 200 1.6 9.7 0.00 0.00 0.00 81 1007.5
20260506011523 14 132 6.4 12.9 0.00 0.00 0.00 81 1006.7
20260506010019 14 167 3.2 16.1 0.00 0.00 0.00 81 1006.9
20260506004519 13 184 4.8 14.5 0.00 0.00 0.00 82 1006.5
20260506003017 13 110 3.2 11.3 0.00 0.00 0.00 83 1006.5
20260506001518 13 202 3.2 12.9 0.00 0.00 0.00 84 1006.5
20260506000015 13 169 3.2 11.3 0.00 0.00 0.00 85 1006.2
20260505234526 13 153 1.6 11.3 0.00 0.00 0.00 87 1006.3
20260505233045 14 168 3.2 11.3 0.00 0.00 0.00 82 1006.3
20260505231557 14 138 3.2 14.5 0.00 0.00 0.00 83 1005.7
20260505230053 14 188 1.6 16.1 0.00 0.00 0.00 84 1005.7
20260505224541 13 223 3.2 9.7 0.00 0.00 0.00 85 1005.7
20260505223040 14 262 1.6 12.9 0.00 0.00 0.00 83 1005.5
20260505221539 14 247 11.3 22.5 0.00 0.00 0.00 84 1005.9
20260505220036 13 205 4.8 17.7 0.00 0.00 0.00 87 1006.0
20260505214537 13 119 6.4 19.3 0.00 0.00 0.00 88 1005.8
20260505213044 14 360 0.0 17.7 0.00 0.00 0.00 86 1005.5
20260505211535 14 360 8.0 12.9 0.00 0.00 0.00 83 1005.6
20260505210005 15 360 4.8 12.9 0.00 0.00 0.00 84 1005.1
20260505204505 14 360 4.8 22.5 0.00 0.00 0.00 85 1005.0
20260505203033 14 360 0.0 4.8 0.00 0.00 0.00 90 1005.1